Terminal Aerodrome Forecast
Issued by NWS

Home | Current Version | Previous Version | Text Only | Print | Product List | Glossary On
Versions: 1 2 3 4 5 6 7 8 9 10 11 12 13 14 15 16 17
547
FTPA31 PHFO 221139
TAFHLI
TAF
PHLI 221139Z 2212/2312 04011KT P6SM VCSH SCT025 SCT040
      TEMPO 2212/2214 -SHRA BKN025
     FM222000 05016G22KT P6SM FEW025 SCT040
     FM230500 05017G23KT P6SM VCSH SCT025 BKN045=

USA.gov is the U.S. government's official web portal to all federal, state and local government web resources and services.